Probability
0 0 0 0 0 0 0 0 0 0 0 0 0 0 0 0 0 0 0 0 0 0 0 0 0 0 0 0 0 0 0 0 0 0 0 0 0 0 0 0 0 0 0 0
0 0 0 0 0 0 0 0 0 0 0 0 0 0 0 0 0 0 0 0 0 0 0 0 0 0 0 0 0 0 0 0 0 0 0 0 0 0 0 0 0 0 0 0
0 0 0 0 0 0 0 0 0 0 0 0 0 0 0 0 0 0 0 0 0 0 0 0 0 0 0 0 0 0 0 0 0 0 0 0 0 0 0 0 0 0 0 0
0 0 0 0 0 0 0 0 0 0 0 0 0 0 0 0 0 0 0 0 0 0 0 0 0 0 0 0 0 0 0 0 0 0 0 0 0 0 0 0 0 0 0 0
0 0 0 0 0 0 0 0 0 0 0 0 0 0 0 0 0 0 0 0 0 0 0 0 0 0 0 0 0 0 0 0 0 0 0 0 0 0 0 0 0 0 0 0
0 0 0 0 0 0 0 0 0 0 0 0 0 0 0 0 0 0 0 0 0 0 0 0 0 0 0 0 0 0 0 0 0 0 0 0 0 0 0 0 0 0 0 0
0 0 0 0 0 0 0 0 0 0 0 0 0 0 0 0 0 0 0 0 0 0 0 0 0 0 0 0 0 0 0 0 0 0 0 0 0 0 0 0 0 0 0 0
0 0 0 0 0 0 0 0 0 0 0 0 0 0 0 0 0 0 0 0 0 0 0 0 0 0 0 0 0 0 0 0 0 0 0 0 0 0 0 0 0 0 0 0
0 0 0 0 0 0 0 0 0 0 0 0 0 0 0 0 0 0 0 0 0 0 0 0 0 0 0 0 0 0 0 0 0 0 0 0 0 0 0 0 0 0 0 0
0 0 0 0 0 0 0 0 0 0 0 0 0 0 0 0 0 0 0 0 0 0 0 0 0 0 0 0 0 0 0 0 0 0 0 0 0 0 0 0 0 0 0 0
0 0 0 0 0 0 0 0 0 0 0 0 0 0 0 0 0 0 0 0 0 0 0 0 0 0 0 0 0 0 0 0 0 0 0 0 0 0 0 0 0 0 0 0
0 0 0 0 0 0 0 0 0 0 0 0 0 0 0 0 0 0 0 0 0 0 0 0 0 0 0 0 0 0 0 0 0 0 0 0 0 0 0 0 0 0 0 0
0 0 0 0 0 0 0 0 0 0 0 0 0 0 0 0 0 0 0 0 0 0 0 0 0 0 0 0 0 0 0 0 0 0 0 0 0 0 0 0 0 0 0 0
0 0 0 0 0 0 0 0 0 0 0 0 0 0 0 0 0 0 0 0 0 0 0 0 0 0 0 0 0 0 0 0 0 0 0 0 0 0 0 0 0 0 0 0
0 0 0 0 0 0 0 0 0 0 0 0 0 0 0 0 0 0 0 0 0 0 0 0 0 0 0 0 0 0 0 0 0 0 0 0 0 0 0 0 0 0 0 0
0 0 0 0 0 0 0 0 0 0 0 0 0 0 0 0 0 0 0 0 0 0 0 0 0 0 0 0 0 0 0 0 0 0 0 0 0 0 0 0 0 0 0 0
0 0 0 0 0 0 0 0 0 0 0 0 0 0 0 0 0 0 0 0 0 0 0 0 0 0 0 0 0 0 0 0 0 0 0 0 0 0 0 0 0 0 0 0
0 0 0 0 0 0 0 0 0 0 0 0 0 0 0 0 0 0 0 0 0 0 0 0 0 0 0 0 0 0 0 0 0 0 0 0 0 0 0 0 0 0 0 0
0 0 0 0 0 0 0 0 0 0 0 0 0 0 0 0 0 0 0 0 0 0 0 0 0 0 0 0 0 0 0 0 0 0 0 0 0 0 0 0 0 0 0 0
0 0 0 0 0 0 0 0 0 0 0 0 0 0 0 0 0 0 0 0 0 0 0 0 0 0 0 0 0 0 0 0 0 0 0 0 0 0 0 0 0 0 0 0
0 0 0 0 0 0 0 0 0 0 0 0 0 0 0 0 0 0 0 0 0 0 0 0 0 0 0 0 0 0 0 0 0 0 0 0 0 0 0 0 0 0 0 0
0 0 0 0 0 0 0 0 0 0 0 0 0 0 0 0 0 0 0 0 0 0 0 0 0 0 0 0 0 0 0 0 0 0 0 0 0 0 0 0 0 0 0 0
0 0 0 0 0 0 0 0 0 0 0 0 0 0 0 0 0 0 0 0 0 0 0 0 0 0 0 0 0 0 0 0 0 0 0 0 0 0 0 0 0 0 0 0
0 0 0 0 0 0 0 0 0 0 0 0 0 0 0 0 0 0 0 0 0 0 0 0 0 0 0 0 0 0 0 0 0 0 0 0 0 0 0 0 0 0 0 0
0 0 0 0 0 0 0 0 0 0 0 0 0 0 0 0 0 0 0 0 0 0 0 0 0 0 0 0 0 0 0 0 0 0 0 0 0 0 0 0 0 0 0 0
0 0 0 0 0 0 0 0 0 0 0 0 0 0 0 0 0 0 0 0 0 0 0 0 0 0 0 0 0 0 0 0 0 0 0 0 0 0 0 0 0 0 0 0
0 0 0 0 0 0 0 0 0 0 0 0 0 0 0 0 0 0 0 0 0 0 0 0 0 0 0 0 0 0 0 0 0 0 0 0 0 0 0 0 0 0 0 0
Height
5604 5603 5602 5601 5600 5596 5592 5589 5585 5582 5576 5572 5566 5561 5556 5549 5544 5541 5542 5546 5554 5566 5578 5592 5604 5614 5624 5633 5640 5646 5651 5655 5658 5660 5661 5661 5660 5659 5658 5656 5653 5650 5646 5642
5600 5598 5597 5596 5595 5592 5589 5586 5582 5578 5575 5571 5565 5560 5556 5552 5548 5546 5548 5552 5560 5570 5582 5593 5604 5614 5623 5630 5636 5642 5646 5649 5651 5653 5654 5653 5653 5652 5650 5647 5644 5641 5637 5632
5595 5594 5594 5594 5591 5589 5586 5584 5580 5577 5575 5571 5567 5563 5560 5557 5555 5554 5556 5561 5568 5577 5587 5597 5606 5614 5621 5628 5633 5637 5641 5643 5645 5646 5647 5647 5646 5644 5642 5639 5635 5631 5627 5621
5591 5592 5591 5592 5589 5587 5585 5583 5580 5577 5575 5573 5570 5567 5565 5563 5563 5563 5566 5571 5577 5585 5592 5600 5607 5614 5619 5625 5629 5633 5636 5638 5639 5640 5640 5639 5638 5636 5633 5630 5626 5622 5616 5610
5588 5588 5588 5589 5587 5585 5584 5583 5581 5579 5577 5575 5572 5571 5570 5570 5571 5572 5575 5580 5585 5590 5596 5602 5607 5613 5618 5622 5626 5628 5631 5633 5634 5634 5633 5632 5630 5628 5625 5621 5617 5612 5606 5599
5585 5585 5586 5587 5586 5584 5585 5584 5582 5581 5580 5578 5577 5576 5576 5576 5577 5580 5582 5586 5590 5594 5598 5603 5608 5612 5616 5619 5622 5624 5626 5627 5628 5627 5626 5625 5622 5619 5616 5612 5607 5601 5595 5588
5582 5582 5584 5585 5585 5585 5586 5586 5584 5582 5582 5581 5581 5581 5581 5581 5582 5584 5587 5590 5593 5596 5600 5603 5607 5610 5614 5616 5619 5620 5621 5622 5621 5621 5619 5617 5614 5611 5607 5602 5597 5591 5584 5577
5579 5580 5584 5583 5584 5585 5585 5585 5584 5584 5584 5583 5583 5583 5584 5584 5586 5587 5589 5592 5595 5597 5600 5603 5606 5609 5611 5613 5615 5616 5616 5616 5615 5614 5612 5609 5606 5602 5597 5592 5586 5579 5572 5564
5578 5581 5581 5582 5583 5584 5584 5585 5585 5585 5585 5585 5585 5585 5586 5587 5588 5590 5591 5593 5596 5598 5600 5602 5605 5607 5608 5609 5610 5611 5611 5610 5608 5606 5604 5601 5597 5592 5587 5581 5575 5568 5561 5553
5576 5578 5579 5580 5582 5583 5584 5584 5584 5585 5585 5585 5586 5586 5587 5588 5589 5591 5592 5594 5596 5597 5599 5601 5602 5604 5605 5606 5606 5606 5605 5604 5602 5599 5596 5592 5588 5582 5577 5571 5564 5557 5550 5542
5573 5576 5577 5579 5580 5582 5582 5583 5584 5584 5585 5585 5586 5586 5587 5588 5589 5590 5592 5593 5595 5596 5598 5599 5600 5601 5601 5601 5601 5600 5599 5597 5594 5591 5587 5583 5578 5572 5566 5560 5553 5546 5539 5531
5572 5574 5576 5577 5578 5580 5581 5582 5583 5583 5584 5584 5585 5585 5586 5587 5588 5589 5591 5592 5593 5595 5596 5596 5597 5597 5597 5597 5596 5594 5592 5590 5587 5583 5578 5573 5568 5562 5555 5549 5542 5535 5527 5519
5569 5571 5573 5575 5576 5577 5579 5580 5581 5582 5582 5583 5583 5584 5585 5586 5587 5588 5589 5591 5592 5592 5593 5593 5594 5593 5593 5591 5590 5588 5585 5582 5578 5574 5569 5564 5558 5552 5545 5538 5531 5523 5515 5505
5567 5569 5570 5572 5574 5575 5576 5577 5579 5580 5580 5581 5582 5583 5583 5584 5585 5587 5588 5588 5589 5590 5590 5590 5589 5589 5587 5586 5583 5581 5578 5574 5570 5565 5560 5554 5549 5542 5536 5528 5521 5511 5502 5492
5564 5566 5568 5569 5571 5572 5574 5575 5576 5577 5578 5579 5580 5581 5582 5583 5583 5584 5585 5586 5586 5586 5586 5586 5585 5583 5581 5579 5576 5573 5570 5566 5561 5556 5551 5545 5539 5533 5526 5518 5510 5501 5491 5479
5561 5563 5565 5566 5568 5569 5571 5572 5574 5575 5576 5577 5578 5579 5580 5580 5581 5582 5582 5583 5583 5582 5582 5581 5579 5577 5575 5572 5569 5565 5561 5557 5552 5547 5542 5536 5530 5523 5516 5507 5498 5488 5477 5465
5558 5560 5562 5563 5565 5567 5568 5570 5571 5572 5573 5574 5575 5576 5577 5578 5578 5579 5579 5579 5578 5578 5576 5575 5573 5571 5568 5565 5561 5557 5553 5549 5544 5539 5533 5527 5520 5513 5505 5496 5485 5474 5461 5448
5555 5557 5559 5560 5562 5564 5565 5567 5568 5569 5570 5571 5572 5573 5574 5574 5575 5575 5574 5574 5573 5572 5570 5568 5566 5563 5560 5557 5553 5549 5545 5541 5536 5530 5524 5518 5511 5502 5493 5483 5471 5459 5445 5432
5552 5554 5555 5557 5559 5560 5562 5563 5565 5566 5567 5568 5569 5569 5570 5570 5570 5570 5569 5569 5567 5566 5564 5562 5559 5556 5553 5549 5546 5542 5537 5533 5527 5522 5515 5508 5500 5491 5480 5469 5456 5443 5430 5418
5549 5550 5552 5553 5555 5557 5558 5560 5561 5562 5563 5564 5565 5565 5565 5565 5565 5564 5564 5563 5561 5559 5557 5555 5552 5549 5546 5542 5538 5534 5530 5525 5519 5513 5505 5497 5488 5478 5466 5454 5441 5428 5416 5404
5545 5546 5548 5550 5551 5553 5554 5555 5557 5558 5558 5559 5560 5560 5560 5560 5559 5559 5557 5556 5555 5552 5550 5548 5545 5542 5539 5535 5531 5527 5522 5516 5510 5503 5495 5486 5476 5464 5452 5440 5427 5415 5403 5393
5540 5541 5543 5545 5546 5548 5549 5550 5552 5552 5553 5554 5554 5554 5554 5554 5553 5552 5551 5550 5548 5546 5543 5541 5538 5535 5531 5528 5523 5519 5513 5507 5500 5493 5484 5474 5463 5451 5439 5426 5414 5403 5392 5384
5535 5536 5538 5540 5541 5542 5544 5545 5546 5547 5548 5548 5548 5549 5548 5548 5547 5546 5545 5543 5541 5539 5537 5534 5531 5528 5524 5520 5516 5511 5505 5498 5490 5482 5472 5462 5450 5438 5426 5414 5403 5393 5385 5378
5529 5531 5533 5534 5536 5537 5538 5539 5540 5541 5542 5542 5542 5542 5542 5541 5541 5539 5538 5536 5534 5532 5530 5527 5524 5521 5517 5513 5508 5502 5495 5488 5479 5470 5460 5449 5438 5427 5415 5404 5394 5386 5379 5375
5523 5525 5527 5528 5530 5531 5532 5533 5534 5535 5535 5536 5536 5536 5535 5535 5534 5533 5531 5529 5527 5525 5523 5520 5517 5513 5509 5504 5499 5493 5485 5477 5469 5459 5449 5438 5427 5416 5405 5396 5387 5381 5376 5373
5517 5518 5520 5522 5523 5525 5526 5527 5528 5528 5529 5529 5529 5529 5529 5528 5527 5526 5524 5522 5520 5518 5516 5513 5509 5506 5501 5496 5490 5483 5475 5467 5458 5448 5438 5428 5417 5406 5396 5388 5382 5377 5374 5372
5509 5511 5513 5514 5516 5517 5519 5520 5521 5521 5522 5522 5522 5522 5521 5521 5520 5518 5517 5515 5513 5511 5508 5505 5502 5498 5493 5487 5481 5474 5466 5457 5448 5439 5428 5417 5407 5397 5389 5383 5378 5375 5373 5372
Wind_Speed
17 18 18 17 17 19 21 20 20 17 17 14 13 13 13 11 8 9 15 22 31 37 40 42 42 42 41 39 36 35 34 34 34 34 34 35 35 34 35 36 37 40 43 46
14 16 15 13 13 14 14 14 14 13 12 10 8 6 6 3 1 8 15 22 30 35 38 38 38 37 36 34 32 32 31 31 32 32 33 33 33 33 34 36 39 42 45 48
12 13 11 9 9 9 10 10 9 9 9 8 6 3 3 4 7 12 18 23 29 32 34 34 34 32 30 29 29 29 29 29 30 31 31 31 32 33 35 38 41 44 47 49
10 10 8 7 6 6 6 6 6 6 5 5 3 2 4 7 10 15 19 23 27 28 29 29 28 27 26 26 26 26 27 27 28 28 29 30 31 34 37 40 42 45 48 50
10 8 5 4 3 2 1 1 2 2 2 2 2 4 7 9 11 14 17 20 22 23 23 23 23 22 22 23 23 23 24 24 25 26 28 30 33 36 38 41 43 46 48 51
9 7 5 4 3 1 3 2 1 1 2 3 4 5 7 9 11 13 14 16 17 18 18 19 19 19 19 19 20 20 21 22 24 26 29 32 34 36 39 42 44 47 50 52
9 7 5 6 5 3 3 2 3 3 2 2 3 4 6 8 10 11 12 12 13 14 15 15 16 16 16 17 17 18 20 22 25 27 30 32 34 37 40 43 45 48 51 54
10 8 6 7 6 5 3 3 4 3 2 2 3 4 5 7 8 9 10 11 11 12 12 12 12 13 14 15 17 19 21 23 25 28 30 33 35 38 41 44 46 49 52 54
11 9 8 8 7 6 4 4 4 4 3 3 3 4 6 7 7 7 8 8 9 9 9 10 10 12 13 15 17 19 21 23 26 28 31 34 37 39 42 45 47 49 51 53
12 11 10 10 9 7 5 5 4 4 4 4 4 4 5 6 6 7 7 7 7 8 8 9 10 12 14 15 17 19 22 24 27 30 32 35 38 41 44 46 48 49 51 52
12 11 10 10 10 8 7 6 6 5 5 5 5 6 6 6 6 7 7 7 8 8 9 10 11 12 14 16 18 21 23 26 29 31 34 37 40 42 44 46 48 49 51 53
12 12 11 11 11 10 9 8 8 7 6 6 6 6 6 7 8 8 8 8 8 8 9 10 11 13 15 18 20 23 25 28 31 33 36 39 41 43 44 46 48 50 52 56
13 13 13 12 12 11 10 9 9 8 8 8 7 7 7 8 8 8 7 7 7 8 9 11 13 15 18 20 22 25 28 30 33 35 37 39 41 42 44 47 49 52 56 60
13 13 13 13 12 12 11 10 10 10 9 9 8 8 8 8 8 8 8 7 8 9 11 13 15 17 20 22 25 27 30 32 34 36 38 39 41 42 44 47 51 55 60 65
13 13 13 13 12 12 11 11 10 10 10 9 9 8 8 7 7 8 8 9 10 12 13 15 17 20 22 24 27 29 31 33 35 36 37 39 41 43 46 49 54 58 63 68
13 13 13 13 13 12 11 11 11 10 10 10 9 9 8 7 7 8 9 10 12 13 15 17 20 22 24 26 28 30 32 33 34 36 38 40 42 45 49 53 58 63 67 71
13 13 13 13 13 12 12 12 12 12 11 11 10 10 9 9 9 10 11 13 14 16 18 21 23 24 26 28 29 31 32 33 35 36 38 41 44 48 52 57 62 67 71 73
13 13 13 13 14 13 12 13 13 13 12 12 12 12 12 12 13 14 15 16 18 19 21 23 24 26 27 28 29 31 32 33 35 37 40 44 47 52 57 61 66 70 73 73
14 14 14 13 13 13 13 13 13 13 13 13 14 14 14 15 16 17 18 19 20 21 23 24 25 26 27 28 29 31 32 34 37 40 43 47 51 56 61 65 69 71 71 68
15 15 15 15 14 14 14 14 14 15 15 16 16 16 17 17 18 19 20 21 21 22 23 24 26 26 27 28 30 31 33 36 39 42 46 50 55 60 64 68 70 70 67 62
16 16 16 16 17 17 17 17 17 16 17 17 18 18 18 19 19 20 21 22 22 23 24 25 26 27 28 29 30 32 35 38 42 45 50 55 59 63 66 68 68 66 60 53
16 17 17 18 18 18 19 19 19 19 19 19 18 19 19 20 21 21 22 22 23 24 25 25 26 27 28 30 32 34 37 41 45 49 54 58 62 64 65 66 64 59 52 42
17 18 18 18 19 20 20 20 20 20 20 20 20 20 21 21 21 22 22 23 24 24 25 26 26 28 29 31 34 37 40 44 48 53 57 60 62 63 64 62 57 50 41 32
19 19 19 19 20 20 20 20 20 20 20 20 20 20 21 21 22 22 23 24 24 25 25 26 27 29 30 33 36 40 43 48 51 55 58 60 61 62 60 56 49 40 31 21
21 21 21 21 21 21 20 20 20 20 20 20 21 21 22 22 23 23 24 24 25 25 26 27 28 30 32 35 39 43 47 50 53 56 58 59 60 59 55 48 39 30 21 12
23 23 22 23 23 22 22 21 21 21 21 21 22 22 23 23 24 24 24 25 25 25 26 28 29 32 35 38 42 45 49 51 53 56 58 60 59 54 48 40 30 21 12 6
25 25 24 24 24 23 23 23 23 23 23 23 24 24 24 24 24 24 24 24 25 26 27 29 31 34 37 41 44 47 50 51 54 57 59 59 55 48 40 31 21 13 6 2
Wind_Direction
257 267 274 283 286 288 293 298 305 310 311 312 303 300 300 295 270 225 198 192 190 189 190 192 195 199 204 210 216 223 230 236 242 248 254 259 265 269 273 277 282 286 289 292
254 265 274 282 287 290 296 299 305 307 317 321 316 315 317 324 157 167 170 172 174 177 180 185 190 196 202 209 217 225 232 238 244 250 256 262 266 271 276 281 285 289 292 295
248 260 267 274 282 295 305 303 296 301 311 321 325 332 32 70 110 136 151 159 163 169 175 181 187 194 203 212 220 228 234 240 247 253 259 264 270 275 280 285 289 292 294 296
242 247 258 266 277 294 307 311 304 303 303 318 345 33 87 109 121 134 144 152 159 166 174 181 189 198 206 214 222 229 236 243 249 255 262 268 274 280 284 288 291 294 296 298
234 231 234 239 249 294 286 344 350 335 341 353 45 95 106 116 124 134 144 153 160 167 175 183 192 200 209 217 224 232 239 246 254 261 268 274 279 283 287 291 293 295 298 299
221 215 203 202 208 147 140 139 88 91 75 66 90 117 121 124 132 140 146 154 163 170 178 186 195 203 211 219 228 236 245 253 260 267 273 278 283 287 290 293 295 297 299 301
207 202 190 189 186 165 155 153 147 138 123 102 108 112 128 140 145 151 157 162 169 175 183 190 198 207 216 226 235 245 254 261 268 274 280 284 287 290 293 295 297 299 301 303
203 202 190 185 179 180 179 178 184 179 165 154 159 158 147 148 154 163 167 170 176 182 190 199 208 218 228 238 249 257 264 271 276 281 284 287 290 293 295 297 299 301 303 305
207 204 194 190 188 195 202 200 192 196 202 190 180 177 175 170 167 168 173 181 188 195 203 214 225 236 246 255 262 268 273 278 282 285 288 291 293 296 298 300 302 304 305 307
209 205 206 204 207 208 212 215 213 214 218 216 204 192 182 182 188 189 191 198 207 214 226 233 243 253 260 266 271 275 280 284 287 290 292 294 297 299 301 302 304 305 307 309
213 211 207 210 215 218 221 226 232 233 239 237 229 222 214 210 211 212 217 223 225 230 240 247 256 264 271 275 279 283 286 289 292 294 296 298 300 302 303 304 306 307 309 310
220 219 217 219 222 227 229 230 232 236 241 240 238 231 225 221 221 223 225 229 235 242 252 261 266 272 279 283 286 288 291 294 296 298 300 302 303 304 305 306 308 309 310 312
225 224 223 224 227 229 229 231 233 236 241 242 240 236 230 224 222 224 230 238 246 256 265 272 277 282 285 288 290 293 296 298 300 302 303 304 305 306 308 309 311 312 313 314
225 224 223 224 227 228 230 235 238 240 245 242 238 235 230 229 232 237 242 249 259 268 275 281 286 288 291 294 296 298 300 301 303 304 305 306 307 309 310 311 313 314 315 316
225 223 224 226 230 232 234 237 236 237 241 238 235 231 231 235 240 246 254 261 269 275 282 288 292 295 296 298 299 301 302 304 305 306 307 308 310 311 312 313 314 315 316 317
222 221 224 227 229 231 231 231 232 233 233 233 229 228 233 239 246 254 264 272 278 283 289 294 297 299 300 301 302 303 305 306 307 308 309 310 311 312 314 315 315 316 317 318
220 221 224 225 227 227 227 230 231 231 231 232 232 235 240 247 257 268 277 282 286 291 295 298 300 301 303 304 305 306 307 308 309 310 311 312 313 314 316 317 317 318 319 319
222 225 226 226 227 229 231 232 231 232 237 239 241 245 252 259 266 274 281 286 290 295 298 300 302 303 305 306 306 308 309 310 311 312 313 314 315 317 318 318 319 319 320 321
226 228 228 227 227 228 231 233 234 236 239 243 248 253 259 265 272 278 284 290 294 297 300 302 304 305 306 307 308 309 310 312 313 314 315 316 317 318 319 320 320 321 322 323
229 229 227 227 230 232 234 236 239 243 246 251 256 260 265 271 277 283 288 292 296 299 301 304 305 306 307 309 310 311 312 314 315 316 317 318 319 320 321 322 322 323 324 324
231 230 228 228 232 236 238 240 243 246 250 256 260 265 270 276 282 287 292 295 298 300 303 305 306 307 309 310 311 313 314 316 317 318 319 320 321 322 323 323 324 325 325 326
234 233 232 234 236 238 239 242 245 248 253 258 263 269 274 279 285 289 293 296 299 302 304 305 307 309 310 312 313 315 316 318 319 320 321 322 324 324 325 325 326 326 326 327
234 235 236 237 238 240 242 245 248 252 257 262 266 270 276 282 286 290 294 297 300 302 304 306 308 310 312 313 315 317 318 320 321 322 323 324 325 326 326 327 327 328 329 329
234 235 237 238 239 240 242 246 250 255 260 264 269 273 278 283 287 291 294 297 300 302 304 307 308 311 313 315 316 318 320 322 323 324 325 326 327 327 328 328 329 330 330 331
237 237 236 237 239 241 245 250 254 258 262 266 271 275 279 283 287 291 294 296 299 302 304 307 309 312 314 316 318 320 322 323 324 326 327 328 328 328 329 329 330 331 332 333
239 239 239 240 242 244 249 253 256 259 263 268 272 276 279 283 287 290 293 296 299 301 305 308 310 313 316 318 320 322 323 325 326 328 329 329 329 329 329 330 330 331 332 333
242 242 242 243 245 247 250 253 256 260 265 268 272 275 278 282 286 289 292 295 298 302 305 308 312 315 317 320 322 323 325 326 327 329 329 330 329 329 329 330 330 330 328 318